Wind_Speed
48 47 44 42 42 39 36 33 34 32 30 14 14 15 17 19 24 23 25 20 17 19 22 21 17 12 2 9 14 16 16 15 18 18 22 27 32 34 36 26 26 37 46
45 46 47 43 41 43 42 37 36 39 33 23 19 24 26 23 28 25 21 22 24 22 28 21 18 11 22 28 22 19 21 21 20 21 23 27 29 29 31 32 31 45 51
26 38 42 46 45 47 48 45 41 43 39 32 24 21 27 34 34 32 29 25 22 25 25 25 23 34 33 38 33 40 29 23 21 26 31 38 36 29 27 32 48 49 48
31 60 30 41 50 49 49 48 47 47 46 40 32 27 35 35 42 41 36 33 29 27 32 34 39 37 40 39 44 41 38 26 25 33 40 46 43 39 39 36 40 43 43
25 19 25 48 45 43 51 52 51 52 52 46 39 38 40 43 43 42 42 42 40 39 37 42 47 46 44 46 48 50 47 44 40 40 45 47 42 43 42 47 47 44 44
34 39 50 50 41 44 46 49 47 52 56 53 50 48 47 50 49 52 50 47 51 53 51 51 51 51 53 52 50 53 57 56 57 53 48 42 45 44 45 47 52 53 48
57 53 47 51 50 58 51 47 43 56 65 62 58 54 54 59 56 53 53 53 54 53 57 60 58 59 59 61 60 61 63 64 62 60 55 50 54 54 55 62 61 64 61
63 60 62 58 53 52 50 54 56 59 68 63 68 66 57 61 61 60 57 56 57 59 62 64 66 67 65 65 69 71 71 67 67 65 64 61 58 57 64 66 65 66 67
72 76 75 70 61 61 57 61 71 72 69 65 65 64 64 68 68 65 65 67 69 67 66 61 65 66 66 67 64 67 69 68 67 68 66 64 63 62 65 76 77 75 79
64 70 86 84 78 79 74 73 78 77 69 65 63 66 66 67 73 75 75 74 73 74 74 76 78 74 76 70 69 69 72 71 74 76 73 77 80 82 85 88 89 87 91
61 69 75 82 89 89 83 83 81 80 82 77 76 78 77 77 78 78 76 78 77 74 68 68 65 67 73 72 73 73 79 81 83 88 86 89 91 93 96 95 91 94 97
61 65 72 74 84 89 88 86 89 91 94 91 86 81 78 81 85 87 88 87 83 83 82 85 87 89 88 87 89 91 91 92 93 96 99 100 100 99 97 99 97 95 99
60 64 64 69 74 79 88 90 93 94 94 95 95 95 94 95 93 93 95 97 99 101 98 102 100 101 99 97 96 94 100 102 102 101 104 104 104 105 107 107 106 105 103
59 62 65 66 67 74 82 84 89 93 96 98 101 103 104 104 99 96 97 99 99 102 102 102 101 102 105 107 106 106 107 108 108 108 108 109 111 112 112 110 110 109 110
60 62 67 69 70 72 73 77 83 89 92 96 99 103 105 105 104 105 107 107 107 109 112 113 114 112 110 110 109 107 109 111 113 112 113 114 114 113 113 111 112 112 111
64 68 71 71 74 76 78 80 82 82 84 87 89 93 97 101 105 108 109 111 115 117 118 119 119 118 119 120 122 122 124 123 122 119 118 116 116 116 118 117 120 120 120
67 68 69 72 75 78 82 85 86 89 92 94 97 98 99 101 104 107 108 109 112 113 114 117 119 120 122 125 127 130 131 130 131 132 129 129 128 127 129 132 129 127 125
70 70 73 76 78 80 82 87 90 91 92 93 96 98 99 103 104 105 107 109 112 113 115 118 119 121 123 126 127 127 127 126 125 126 127 125 125 127 128 128 126 124 120
70 72 75 76 77 79 80 82 82 83 85 86 88 89 91 95 97 100 101 102 105 108 110 113 115 115 117 117 119 118 118 116 115 114 113 114 113 111 110 109 108 107 105
71 73 76 77 78 79 82 83 86 89 90 91 93 95 97 98 101 103 105 106 107 106 108 110 111 112 113 113 113 111 108 108 106 103 101 101 101 99 97 95 92 89 87
77 78 82 84 87 88 89 93 96 97 98 98 99 100 100 101 100 99 99 100 100 100 101 102 102 100 100 99 97 98 96 94 92 88 88 88 87 82 77 72 68 68 67
84 87 88 91 92 94 97 98 99 99 98 96 92 91 88 87 86 86 85 84 83 82 80 74 75 75 76 77 80 81 80 80 77 73 72 72 71 67 63 59 56 54 53
91 93 91 89 90 89 89 87 84 83 80 78 76 74 71 70 70 70 69 66 62 55 54 56 56 58 59 59 60 60 60 60 59 55 57 58 59 55 50 48 46 46 46
84 80 78 77 75 74 72 69 68 67 67 60 58 56 57 58 55 54 52 49 47 46 45 45 45 45 45 45 45 44 43 43 41 42 44 46 45 42 40 40 40 41 41
66 61 58 58 59 60 61 57 52 51 46 45 43 42 41 41 39 39 38 36 34 34 36 36 35 34 35 35 34 32 30 28 29 30 33 35 34 33 33 34 34 35 37
45 47 51 49 45 44 43 42 39 37 36 32 31 30 29 29 28 25 23 24 24 24 26 27 27 28 28 28 28 27 24 22 21 22 24 25 26 27 27 28 29 31 33
Wind_Direction
227 230 231 240 245 249 251 258 262 265 263 239 197 234 279 273 270 267 281 282 260 255 254 256 235 211 236 351 341 338 331 300 290 289 286 290 293 293 282 250 272 299 300
229 234 232 236 244 248 253 258 263 259 259 245 261 281 271 250 256 259 268 269 260 240 243 222 216 235 300 303 309 311 309 304 290 284 280 292 294 295 280 267 276 295 305
221 260 250 247 248 249 250 254 257 253 252 246 253 244 263 253 253 257 264 260 256 246 227 224 243 272 278 293 287 291 295 292 289 291 287 294 296 298 273 270 278 293 296
214 220 264 273 259 260 256 254 257 253 250 246 250 233 260 250 253 257 251 249 251 249 239 237 272 275 283 283 286 288 294 272 284 289 284 292 284 286 287 287 302 298 301
184 222 264 253 253 266 260 260 264 254 252 255 248 238 258 250 246 256 256 254 254 253 252 257 273 275 277 284 280 279 279 282 284 291 297 289 280 278 281 280 299 309 299
211 223 229 244 269 267 263 263 269 259 260 252 251 244 246 251 244 250 258 260 259 258 266 269 273 276 278 281 284 282 279 282 282 284 296 283 284 280 283 291 296 306 298
205 217 232 231 223 247 253 255 253 248 250 255 260 257 251 249 247 248 250 255 259 263 269 272 273 275 278 282 283 284 286 286 286 287 287 281 279 275 276 294 295 299 298
215 217 225 228 227 231 233 241 255 247 246 257 259 259 252 249 251 250 249 249 253 259 263 268 272 275 278 281 284 282 284 284 284 283 285 282 279 276 278 290 295 296 298
227 228 226 228 225 226 235 240 244 244 248 258 264 259 253 253 251 256 254 254 259 264 261 264 269 271 273 274 274 275 278 277 279 277 278 271 268 276 280 287 292 295 295
230 231 232 231 229 232 235 243 233 237 245 254 258 259 261 257 253 258 261 266 269 268 268 268 269 274 274 279 278 276 275 278 276 270 267 268 274 282 278 281 289 292 291
241 232 231 233 233 236 238 239 240 242 243 252 257 259 260 259 260 262 260 260 261 261 262 265 265 266 267 265 266 265 263 263 264 267 270 273 273 275 280 281 283 286 288
249 242 237 236 234 235 238 240 244 248 248 252 254 258 255 255 260 264 262 263 260 259 263 269 271 271 270 264 265 262 263 264 265 268 270 272 274 275 279 283 285 287 290
253 254 248 242 241 242 243 244 248 250 252 254 256 257 258 262 264 265 266 268 266 267 269 274 275 274 274 274 271 267 265 266 263 269 270 274 278 280 283 286 288 289 291
251 255 257 254 250 248 250 253 253 253 253 254 256 257 259 262 264 265 267 267 267 268 271 272 274 274 273 273 274 274 273 271 273 275 276 279 281 282 284 288 291 291 290
252 250 254 257 258 258 256 254 254 256 258 259 260 261 261 262 265 266 266 267 268 268 270 272 273 273 273 274 274 274 274 275 277 278 279 280 282 283 284 285 286 287 287
258 255 252 255 258 259 260 262 263 263 264 263 262 263 263 264 264 266 267 269 269 269 269 270 271 272 273 274 275 275 276 277 278 278 278 278 278 280 282 283 283 284 285
265 264 262 260 260 262 262 262 262 263 264 264 266 266 266 267 267 267 267 268 269 269 269 270 271 270 271 271 271 272 272 273 274 276 277 278 279 280 280 283 284 284 285
266 266 266 267 268 268 267 267 266 267 267 268 268 268 269 268 269 270 270 270 270 270 270 270 271 271 271 272 272 273 274 276 276 277 277 278 278 277 277 279 280 281 282
269 269 270 270 271 271 272 272 272 272 272 273 272 271 273 273 273 272 272 272 272 273 273 272 272 273 274 274 274 275 275 275 275 275 275 275 275 275 275 276 275 275 277
272 272 271 272 273 273 274 275 276 276 276 276 277 276 276 275 275 276 276 275 274 274 274 274 275 276 277 277 277 277 277 277 277 276 276 276 276 277 276 276 275 274 273
271 273 276 276 275 276 277 278 278 277 277 277 277 277 277 278 277 276 275 276 276 276 276 276 277 279 279 279 280 278 277 278 278 278 278 277 277 277 276 275 272 269 269
275 277 277 277 278 278 278 278 277 279 280 280 280 278 276 275 275 276 276 276 276 276 279 278 273 272 272 272 273 275 276 276 276 274 271 270 271 272 273 271 269 266 262
277 278 279 279 279 279 281 283 282 280 280 278 278 277 277 276 276 275 276 279 282 277 270 270 271 272 274 275 277 277 277 276 273 270 265 266 267 268 267 265 262 258 256
278 280 281 283 284 284 285 286 286 285 284 284 283 281 280 279 280 283 284 283 280 278 279 277 275 277 279 280 282 283 281 275 269 263 261 261 263 262 260 255 251 250 250
282 284 286 286 288 290 292 292 291 289 287 287 282 279 280 282 280 281 284 285 285 284 283 283 284 285 287 290 291 291 288 278 267 259 258 258 258 257 254 250 247 246 245
287 290 291 293 296 300 302 301 298 296 293 286 281 278 277 280 283 284 287 288 292 298 300 300 299 297 295 294 296 297 295 288 277 267 260 258 256 253 250 248 246 244 242
Height
10943 10946 10949 10952 10954 10955 10955 10955 10956 10955 10954 10959 10969 10968 10962 10955 10951 10950 10951 10952 10949 10950 10953 10952 10953 10954 10952 10949 10949 10950 10950 10950 10950 10952 10952 10952 10950 10949 10944 10944 10943 10941 10939
10932 10937 10942 10945 10946 10947 10948 10947 10947 10948 10947 10946 10948 10948 10945 10943 10942 10942 10943 10945 10946 10944 10945 10947 10946 10944 10943 10945 10945 10945 10944 10944 10944 10943 10944 10943 10942 10940 10940 10937 10935 10934 10930
10926 10937 10941 10940 10938 10937 10937 10938 10937 10938 10937 10936 10936 10935 10936 10935 10934 10933 10934 10935 10936 10937 10938 10938 10939 10938 10937 10937 10938 10938 10939 10937 10935 10936 10938 10936 10934 10933 10930 10932 10928 10926 10924
10916 10924 10931 10932 10931 10932 10930 10928 10927 10927 10928 10928 10927 10927 10925 10922 10922 10925 10925 10925 10925 10926 10930 10931 10930 10931 10930 10930 10927 10927 10927 10928 10928 10928 10927 10926 10925 10924 10922 10921 10920 10916 10912
10902 10922 10935 10924 10921 10920 10918 10916 10916 10916 10917 10919 10917 10915 10915 10914 10912 10915 10916 10916 10916 10915 10918 10920 10919 10919 10921 10919 10919 10917 10915 10917 10915 10915 10914 10913 10912 10912 10911 10910 10908 10906 10901
10905 10908 10912 10912 10911 10911 10907 10904 10904 10906 10907 10901 10903 10904 10905 10903 10903 10903 10904 10905 10904 10904 10905 10905 10906 10906 10907 10905 10906 10906 10905 10903 10902 10903 10902 10900 10899 10898 10898 10896 10894 10890 10888
10888 10893 10891 10891 10895 10892 10893 10890 10887 10882 10881 10888 10891 10893 10893 10891 10891 10891 10891 10892 10892 10891 10889 10889 10890 10891 10891 10891 10890 10890 10889 10888 10886 10888 10888 10887 10884 10883 10881 10879 10878 10875 10871
10868 10867 10864 10866 10872 10878 10878 10872 10870 10869 10865 10870 10875 10877 10880 10880 10879 10878 10878 10877 10878 10878 10875 10874 10874 10874 10875 10873 10872 10871 10871 10870 10869 10871 10870 10867 10865 10863 10863 10862 10859 10858 10854
10850 10850 10850 10852 10857 10858 10858 10858 10855 10854 10853 10854 10857 10858 10863 10864 10863 10861 10861 10861 10862 10863 10861 10860 10860 10860 10858 10855 10854 10853 10852 10852 10852 10852 10849 10848 10845 10843 10842 10844 10839 10841 10837
10830 10830 10832 10835 10836 10837 10838 10840 10838 10836 10837 10839 10840 10842 10846 10847 10846 10844 10844 10845 10844 10845 10845 10845 10845 10843 10839 10839 10837 10835 10832 10832 10831 10831 10830 10828 10825 10823 10822 10823 10821 10817 10814
10805 10808 10810 10812 10815 10816 10818 10820 10821 10822 10820 10820 10822 10824 10827 10827 10826 10827 10826 10825 10824 10824 10824 10824 10825 10822 10818 10819 10817 10815 10814 10810 10808 10807 10804 10802 10803 10802 10799 10797 10801 10798 10793
10783 10786 10790 10794 10795 10795 10796 10796 10797 10798 10799 10803 10802 10804 10804 10804 10805 10803 10802 10802 10805 10804 10803 10802 10801 10803 10800 10796 10793 10791 10788 10786 10785 10783 10780 10778 10777 10776 10774 10772 10773 10777 10770
10766 10767 10771 10775 10775 10776 10776 10777 10777 10778 10778 10779 10781 10782 10782 10780 10784 10781 10778 10779 10780 10779 10779 10775 10773 10772 10773 10772 10769 10767 10765 10762 10758 10758 10756 10754 10750 10747 10746 10745 10744 10746 10746
10749 10751 10754 10756 10758 10759 10757 10756 10756 10756 10756 10756 10756 10757 10758 10757 10762 10754 10751 10752 10754 10752 10751 10749 10746 10744 10742 10742 10740 10738 10736 10734 10734 10732 10730 10728 10721 10717 10717 10715 10715 10713 10716
10731 10732 10733 10735 10736 10737 10738 10739 10738 10736 10735 10733 10732 10730 10730 10729 10730 10729 10727 10726 10724 10722 10722 10719 10716 10714 10714 10712 10707 10705 10703 10700 10700 10703 10700 10697 10693 10692 10689 10685 10686 10686 10685
10711 10713 10715 10716 10717 10717 10717 10716 10715 10716 10712 10711 10709 10706 10706 10704 10706 10703 10701 10698 10694 10694 10692 10688 10686 10684 10680 10676 10671 10670 10667 10665 10665 10669 10667 10666 10664 10662 10659 10657 10654 10654 10652
10694 10694 10696 10696 10696 10696 10695 10693 10693 10691 10688 10688 10683 10680 10681 10682 10677 10676 10673 10670 10664 10664 10662 10657 10655 10655 10648 10645 10642 10636 10635 10632 10632 10631 10633 10629 10628 10624 10622 10624 10621 10616 10618
10676 10676 10676 10675 10673 10671 10669 10666 10665 10665 10664 10661 10658 10654 10653 10648 10646 10642 10640 10637 10632 10629 10628 10623 10620 10617 10613 10608 10605 10603 10601 10598 10596 10593 10591 10587 10585 10585 10587 10588 10586 10584 10585
10655 10654 10650 10649 10647 10644 10644 10641 10638 10635 10632 10630 10627 10627 10622 10617 10612 10608 10605 10603 10598 10594 10589 10586 10583 10580 10575 10572 10568 10567 10565 10561 10556 10555 10553 10549 10548 10549 10550 10552 10551 10551 10550
10634 10633 10628 10626 10625 10623 10618 10616 10612 10606 10605 10601 10596 10593 10590 10588 10582 10576 10570 10565 10562 10559 10554 10548 10545 10542 10539 10535 10530 10528 10526 10521 10519 10517 10517 10515 10511 10510 10512 10514 10514 10516 10518
10613 10613 10605 10601 10598 10596 10593 10588 10583 10580 10574 10570 10566 10562 10558 10551 10543 10541 10537 10533 10526 10521 10518 10516 10513 10508 10501 10498 10494 10490 10487 10486 10485 10485 10484 10481 10479 10480 10481 10483 10485 10488 10491
10589 10585 10583 10578 10572 10566 10559 10554 10549 10545 10540 10534 10532 10526 10524 10518 10514 10510 10505 10501 10498 10496 10492 10489 10485 10481 10477 10473 10469 10463 10459 10458 10458 10459 10458 10456 10455 10457 10459 10462 10464 10467 10471
10564 10558 10553 10549 10543 10537 10531 10524 10518 10510 10507 10504 10499 10494 10492 10490 10487 10483 10482 10480 10475 10472 10468 10465 10462 10459 10456 10452 10447 10442 10437 10434 10434 10435 10435 10435 10436 10439 10442 10444 10447 10450 10455
10538 10533 10528 10523 10516 10509 10504 10499 10492 10486 10477 10475 10474 10472 10469 10466 10466 10466 10462 10459 10456 10452 10449 10448 10446 10443 10440 10436 10431 10426 10422 10418 10416 10416 10418 10420 10422 10425 10427 10429 10432 10436 10440
10519 10514 10509 10503 10497 10491 10484 10476 10469 10461 10461 10457 10454 10452 10452 10450 10449 10447 10446 10444 10441 10439 10437 10434 10431 10428 10424 10420 10416 10412 10409 10406 10404 10405 10407 10408 10411 10413 10415 10417 10421 10425 10429
10501 10497 10491 10487 10482 10476 10469 10462 10456 10450 10447 10444 10441 10440 10439 10439 10438 10437 10435 10434 10431 10428 10426 10422 10419 10416 10412 10409 10405 10402 10399 10397 10396 10397 10397 10399 10401 10403 10406 10408 10411 10415 10418